[[{"header":{"parameterUnit":"m.s-1","parameterCategory":1,"la1":30.2991,"la2":30.254,"lo1":-89.0895,"lo2":-89.0444,"dy":0.0017,"dx":0.0017,"nx":28,"ny":28,"refTime":"2025-11-12T03:00:00:Z","depth":0,"parameterNumber":2,"parameterNumberName":"U-component_of_WINDS"},"data":[0,0,0,0,0,0,0,0,0,0,0,0,0,0,0,0,0,0,0,0,0,0,0,0,0,0,0,0,0,0,0,0,0,0,0,0,0,0,0,0,0,0,0,0,0,0,0,0,0,0,0,0,0,0,0,0,0,0,0.7529,0.753,0,0.7586,0.7587,0.7588,0.761,0.761,0.761,0.7609,0.7668,0.767,0.7671,0,0,0,0,0,0,0,0,0,0,0,0,0,0.7437,0.7439,0.7529,0.753,0.753,0.7586,0.7587,0.7588,0.761,0.761,0.761,0.7609,0.7667,0.7669,0.7671,0,0,0,0,0,0,0,0,0,0,0,0,0,0.7484,0.7439,0.7529,0.7548,0.755,0.7586,0.7587,0.7588,0.761,0.761,0.7609,0.7609,0.7667,0.7669,0.7672,0.7692,0,0,0.7679,0.7681,0,0,0,0,0,0,0,0,0.7481,0.7487,0.7545,0.7547,0.755,0.7591,0.7576,0.7623,0.761,0.7587,0.7609,0.7609,0.7642,0.7647,0.7658,0.7695,0.7697,0.768,0.7681,0.7682,0.7683,0,0,0,0,0,0,0,0.7478,0.7485,0.7552,0.7545,0.7548,0.7553,0.756,0.7585,0.7615,0.7589,0.7591,0.7598,0.7644,0.7656,0.766,0.7698,0.768,0.7682,0.7683,0.7684,0.7753,0.7754,0,0,0,0,0,0,0.7472,0.7482,0.755,0.7553,0.7514,0.7555,0.7563,0.7578,0.7615,0.7621,0.7598,0.7598,0.7651,0.7657,0.7662,0.7688,0.7682,0.7685,0.7686,0.7753,0.7754,0.7754,0,0,0,0,0,0,0.747,0.7478,0.7548,0.7518,0.7528,0.7557,0.7574,0.7579,0.7591,0.7622,0.7627,0.7604,0.7651,0.7658,0.7684,0.769,0.7686,0.7688,0.7753,0.7753,0.7754,0.774,0,0,0,0,0,0,0.7467,0.7477,0.7485,0.7518,0.7529,0.7569,0.7575,0.758,0.7595,0.7597,0.7629,0.7635,0.7652,0.768,0.7687,0.7693,0.769,0.7752,0.7753,0.7754,0.774,0.774,0.774,0,0,0,0,0,0.7464,0.7479,0.7486,0.7494,0.754,0.757,0.7576,0.7595,0.7596,0.7604,0.7624,0.7634,0.7688,0.7683,0.769,0.7698,0.7752,0.7753,0.7754,0.774,0.774,0.774,0,0,0,0,0,0,0.7446,0.7484,0.7491,0.7518,0.7541,0.7573,0.7585,0.7595,0.7617,0.7618,0.7641,0.7648,0.7672,0.7687,0.7681,0.7719,0.7721,0.7723,0.7708,0.7708,0.7708,0.7704,0.7692,0,0,0,0,0,0.7446,0.7467,0.7498,0.7519,0.753,0.7555,0.7569,0.7582,0.7605,0.7615,0.7636,0.7659,0.7681,0.7696,0.7718,0.7742,0.7749,0.7751,0.7751,0.775,0.7752,0.7765,0.7766,0.7756,0.7756,0.7756,0,0,0.7444,0.7468,0.7479,0.7516,0.7535,0.7555,0.7563,0.7585,0.76,0.7618,0.7644,0.766,0.7687,0.7712,0.7724,0.7726,0.7756,0.7751,0.7751,0.7753,0.7766,0.7767,0.7768,0.7757,0.7756,0.7756,0,0,0.7453,0.7473,0.7492,0.751,0.7538,0.7555,0.7559,0.759,0.7602,0.7628,0.7642,0.766,0.7698,0.7716,0.773,0.7744,0.7753,0.775,0.775,0.7762,0.7763,0.7764,0.7768,0.7769,0.7752,0.7752,0.7752,0,0.7448,0.748,0.75,0.7521,0.7536,0.7553,0.7572,0.7589,0.7622,0.7632,0.7634,0.7681,0.77,0.7729,0.7732,0.7744,0.7749,0.7747,0.7761,0.7762,0.7763,0.7768,0.7769,0.7751,0.7751,0.7751,0.7751,0,0.7472,0.7493,0.7505,0.7537,0.7554,0.7573,0.7596,0.761,0.7621,0.7637,0.7663,0.7687,0.7713,0.7721,0.7733,0.7751,0.7752,0.7757,0.7759,0.7763,0.7768,0.777,0.775,0.7751,0.7751,0.7751,0,0,0.7471,0.7513,0.7517,0.7532,0.7563,0.758,0.76,0.7626,0.7638,0.766,0.7677,0.7708,0.7713,0.7729,0.7742,0.7753,0.7761,0.7757,0.7758,0.7756,0.7783,0.7778,0.778,0.7768,0.7768,0.7768,0.778,0,0.7484,0.752,0.7538,0.7567,0.7587,0.7603,0.762,0.7641,0.7656,0.7675,0.7692,0.7713,0.7718,0.7728,0.7739,0.7758,0.7767,0.7757,0.7783,0.7784,0.7776,0.7783,0.7778,0.7789,0.7782,0.7782,0.7783,0,0.7503,0.7525,0.7555,0.7583,0.7592,0.7608,0.7632,0.765,0.7674,0.7684,0.7701,0.7714,0.7735,0.7736,0.7764,0.7757,0.7769,0.7779,0.778,0.7784,0.7784,0.7786,0.7792,0.7794,0.7786,0.7786,0.7785,0,0.7499,0.7536,0.7559,0.757,0.7604,0.7614,0.7629,0.7652,0.7666,0.7688,0.7697,0.7721,0.7734,0.7751,0.777,0.7769,0.7796,0.7799,0.7805,0.7805,0.7811,0.781,0.7819,0.7818,0.7818,0.7818,0.7818,0,0.751,0.7528,0.7557,0.7571,0.7591,0.7612,0.7631,0.7647,0.7667,0.7684,0.7699,0.7714,0.7738,0.7756,0.7771,0.7792,0.7798,0.7807,0.781,0.7805,0.7804,0.7813,0.7813,0.7819,0.7819,0.7818,0.7818,0,0.7509,0.753,0.7555,0.7585,0.7593,0.7606,0.7631,0.7645,0.7661,0.7682,0.7688,0.7713,0.7735,0.7755,0.7785,0.7794,0.7816,0.782,0.7808,0.781,0.7815,0.7814,0.783,0.7833,0.783,0.783,0.783,0,0.7515,0.7529,0.756,0.7573,0.7587,0.7607,0.7621,0.7641,0.7655,0.7683,0.7693,0.7716,0.7736,0.777,0.7791,0.7813,0.7818,0.7822,0.7822,0.7816,0.7818,0.7817,0.7818,0.7822,0.7822,0.7822,0.7822,0,0.7524,0.7533,0.7553,0.7576,0.7593,0.7612,0.7632,0.7641,0.7665,0.768,0.7702,0.7717,0.7747,0.777,0.7794,0.7809,0.7819,0.7822,0.7824,0.7819,0.7811,0.7815,0.7807,0.7821,0.7821,0.7821,0.7821,0.7822,0.7526,0.7539,0.7562,0.7584,0.7601,0.7619,0.7633,0.765,0.7669,0.7695,0.7706,0.7729,0.7751,0.7785,0.7799,0.7817,0.7819,0.7823,0.7824,0.7825,0.7824,0.7808,0.7822,0.7822,0.7822,0.7822,0.7822,0,0.7535,0.755,0.757,0.7597,0.7614,0.7622,0.7644,0.7657,0.7677,0.7697,0.7716,0.7741,0.7763,0.7785,0.7808,0.7818,0.7823,0.7823,0.7822,0.7825,0.7821,0.7816,0.7818,0.7818,0.7818,0.7818,0.7818,0.7818,0.7541,0.7563,0.7575,0.7605,0.762,0.7643,0.7654,0.7671,0.7687,0.7715,0.7733,0.7747,0.7767,0.7791,0.7811,0.7817,0.7825,0.7823,0.7831,0.7826,0.7826,0.7826,0.7822,0.7825,0.7825,0.7834,0.7834,0.7834]},{"header":{"parameterUnit":"m.s-1","parameterCategory":1,"la1":30.2991,"la2":30.254,"lo1":-89.0895,"lo2":-89.0444,"dy":0.0017,"dx":0.0017,"nx":28,"ny":28,"refTime":"2025-11-12T03:00:00:Z","depth":0,"parameterNumber":3,"parameterNumberName":"V-component_of_WINDS"},"data":[0,0,0,0,0,0,0,0,0,0,0,0,0,0,0,0,0,0,0,0,0,0,0,0,0,0,0,0,0,0,0,0,0,0,0,0,0,0,0,0,0,0,0,0,0,0,0,0,0,0,0,0,0,0,0,0,0,0,0.9725,0.9724,0,0.9597,0.9595,0.9594,0.9513,0.9513,0.9512,0.9512,0.9376,0.9373,0.937,0,0,0,0,0,0,0,0,0,0,0,0,0,0.9896,0.9894,0.9725,0.9724,0.9722,0.9597,0.9595,0.9594,0.9513,0.9513,0.9512,0.9512,0.9377,0.9373,0.9369,0,0,0,0,0,0,0,0,0,0,0,0,0,0.98,0.9893,0.9726,0.9667,0.9661,0.9597,0.9595,0.9593,0.9513,0.9513,0.9512,0.9511,0.9378,0.9374,0.9369,0.9353,0,0,0.9354,0.9352,0,0,0,0,0,0,0,0,0.9806,0.9794,0.9677,0.9671,0.9664,0.957,0.9606,0.9512,0.9513,0.9569,0.9512,0.9511,0.9441,0.9431,0.9408,0.9346,0.934,0.9354,0.9351,0.9349,0.9347,0,0,0,0,0,0,0,0.9813,0.9799,0.9674,0.9676,0.9667,0.9646,0.9631,0.9588,0.951,0.9564,0.9558,0.9544,0.9437,0.9413,0.9404,0.9338,0.9354,0.935,0.9347,0.9345,0.9255,0.9256,0,0,0,0,0,0,0.9829,0.9805,0.9678,0.967,0.9735,0.9643,0.9627,0.9601,0.951,0.9496,0.9545,0.9541,0.9422,0.941,0.9399,0.9373,0.9349,0.9344,0.9342,0.9255,0.9255,0.9256,0,0,0,0,0,0,0.9833,0.9819,0.9684,0.9736,0.9717,0.9641,0.9612,0.9599,0.9575,0.9496,0.9481,0.9535,0.9421,0.9406,0.9365,0.9367,0.9342,0.9338,0.9254,0.9255,0.9255,0.9322,0,0,0,0,0,0,0.9838,0.9821,0.9815,0.9737,0.9715,0.9653,0.9612,0.9597,0.9567,0.9561,0.9483,0.9469,0.9419,0.9372,0.936,0.936,0.9334,0.9253,0.9254,0.9255,0.9319,0.9325,0.933,0,0,0,0,0,0.9845,0.9838,0.9815,0.98,0.9706,0.9653,0.9641,0.9584,0.9568,0.956,0.951,0.9471,0.937,0.9369,0.9354,0.9353,0.9253,0.9254,0.9255,0.9317,0.9324,0.933,0,0,0,0,0,0,0.9917,0.9827,0.98,0.9768,0.9719,0.964,0.9629,0.9594,0.9547,0.9543,0.9474,0.9457,0.9422,0.9383,0.9384,0.9332,0.9307,0.9305,0.9358,0.9364,0.937,0.9379,0.933,0,0,0,0,0,0.993,0.9896,0.9818,0.9797,0.9774,0.9706,0.9681,0.9642,0.9587,0.9566,0.9512,0.946,0.9416,0.9388,0.9343,0.9313,0.9294,0.9305,0.9311,0.9315,0.9314,0.9294,0.9298,0.9259,0.9259,0.9259,0,0,0.9954,0.9901,0.9883,0.981,0.9767,0.9732,0.9689,0.9654,0.9626,0.956,0.9518,0.9477,0.9413,0.9378,0.9359,0.9344,0.9321,0.9317,0.9321,0.9317,0.9296,0.9299,0.9303,0.926,0.926,0.926,0,0,0.9981,0.9938,0.9915,0.9874,0.981,0.9765,0.976,0.9686,0.9656,0.9613,0.9563,0.9528,0.9454,0.9411,0.9379,0.939,0.9352,0.9377,0.9404,0.9386,0.9389,0.9391,0.9393,0.9395,0.9377,0.9377,0.9377,0,1.002,0.9966,0.9908,0.9875,0.9844,0.9784,0.976,0.9722,0.9646,0.9625,0.961,0.9516,0.9469,0.9421,0.9424,0.9401,0.9391,0.9385,0.9393,0.9395,0.9396,0.9397,0.9399,0.938,0.938,0.9379,0.9379,0,1.0015,0.9979,0.9968,0.9898,0.9865,0.9837,0.9774,0.9747,0.9711,0.9667,0.9623,0.9565,0.9507,0.9493,0.9457,0.944,0.9433,0.9407,0.9379,0.9404,0.9404,0.9404,0.9385,0.9384,0.9383,0.9382,0,0,1.0083,0.9982,0.9979,0.9946,0.9872,0.9842,0.981,0.9755,0.9733,0.9683,0.9653,0.9592,0.9567,0.9531,0.949,0.9474,0.9484,0.9448,0.9446,0.9456,0.946,0.9479,0.9481,0.9459,0.9459,0.9459,0.9465,0,1.0098,1.004,0.9987,0.9947,0.9912,0.9854,0.9826,0.9777,0.9735,0.9698,0.965,0.9608,0.9579,0.9556,0.9538,0.9487,0.9483,0.9486,0.9429,0.9428,0.9446,0.9481,0.9502,0.951,0.9464,0.9464,0.9464,0,1.0108,1.0062,1.0019,0.9948,0.9931,0.9907,0.9851,0.9817,0.9759,0.9729,0.969,0.9646,0.9608,0.9586,0.9532,0.9535,0.9508,0.948,0.9479,0.947,0.9447,0.9472,0.9512,0.9513,0.9464,0.9464,0.9464,0,1.016,1.0087,1.0052,1.0026,0.9942,0.9926,0.989,0.9832,0.9802,0.9753,0.9732,0.9679,0.9649,0.9608,0.9551,0.9541,0.9502,0.9476,0.9475,0.9477,0.9468,0.947,0.9503,0.9454,0.9454,0.9454,0.9454,0,1.0182,1.0157,1.0074,1.0053,1.0023,0.9962,0.9934,0.9892,0.9841,0.9809,0.9756,0.9726,0.9653,0.9614,0.9569,0.953,0.9518,0.9491,0.9479,0.9495,0.9499,0.9476,0.9474,0.9454,0.9454,0.9454,0.9454,0,1.0235,1.0179,1.0136,1.006,1.0041,1.0022,0.9956,0.9932,0.9888,0.9847,0.9834,0.9764,0.9715,0.9654,0.9586,0.9556,0.9521,0.9504,0.9541,0.9534,0.9536,0.9537,0.9555,0.9554,0.9508,0.9509,0.9509,0,1.0252,1.0232,1.0154,1.013,1.0096,1.0057,1.0026,0.9964,0.9934,0.9866,0.985,0.9798,0.9753,0.9678,0.9619,0.9567,0.9547,0.9557,0.9538,0.9555,0.9545,0.9546,0.9543,0.9561,0.9562,0.9563,0.9563,0,1.0287,1.026,1.0219,1.0167,1.0132,1.0088,1.0042,1.0024,0.9953,0.9921,0.9872,0.9837,0.9768,0.9716,0.9656,0.9617,0.9578,0.957,0.9567,0.9582,0.9604,0.9591,0.9553,0.9569,0.9569,0.9568,0.9568,0.9568,1.0321,1.03,1.0243,1.0198,1.0157,1.0115,1.0088,1.004,0.9999,0.9939,0.9905,0.9856,0.9797,0.9713,0.9675,0.9635,0.962,0.9616,0.9615,0.9614,0.9619,0.9612,0.9624,0.9624,0.9623,0.9623,0.9623,0,1.0352,1.0313,1.0272,1.021,1.0174,1.0142,1.0089,1.006,1.0019,0.9968,0.9926,0.9868,0.9818,0.9756,0.9701,0.968,0.9661,0.9668,0.9668,0.9659,0.9635,0.9643,0.9685,0.9685,0.9685,0.9685,0.9685,0.9685,1.0365,1.0328,1.0294,1.0235,1.0195,1.0148,1.0121,1.0081,1.004,0.9979,0.9937,0.9898,0.9842,0.9782,0.9734,0.9717,0.9698,0.971,0.9688,0.9666,0.9661,0.9656,0.9663,0.9707,0.9707,0.9714,0.9714,0.9714]}]]